Temp_Advection
nan nan nan nan nan nan nan nan nan nan nan nan nan nan nan nan nan nan nan nan nan nan nan nan nan nan nan nan nan nan nan nan nan nan nan nan nan nan nan nan nan nan nan nan nan nan nan nan nan nan nan nan nan nan nan nan nan nan nan nan nan nan nan nan nan nan nan nan nan nan nan nan nan nan nan nan nan nan nan nan nan nan nan nan nan nan
nan 1 1 1 1 -0 -1 -0 -0 -1 -1 -1 -1 -2 -1 -0 0 -0 -0 -1 -1 -1 -1 -1 -0 -0 -0 -0 -1 -1 -0 -0 0 1 1 0 -0 -0 -0 -0 -0 -0 -0 -0 0 0 0 0 0 1 0 -0 -1 -1 -1 -0 1 1 2 1 0 1 1 1 1 0 0 1 1 2 3 2 1 0 -0 -0 -1 -1 -1 -1 0 1 1 0 0 nan
nan 0 0 1 -0 -1 -1 -1 -0 -1 -1 -1 -0 -1 -0 -0 -1 -1 -1 -1 -1 -1 -1 -0 -0 -0 -0 -1 -1 -1 -1 -0 0 0 1 1 0 -0 -0 -0 -0 -0 -0 -0 0 0 0 -0 0 1 1 0 -0 -1 -0 1 1 1 1 0 0 1 1 1 0 0 1 2 3 3 2 1 0 -0 -0 -1 -1 -1 -0 0 1 1 0 0 -0 nan
nan -0 0 0 -0 -1 -1 -0 0 0 0 0 0 0 -1 -1 -1 -1 -1 -1 -0 -0 -0 -0 -0 -0 -1 -1 -1 -1 -0 -0 0 0 1 1 0 0 -0 -0 -0 -0 -0 -0 -0 0 0 -0 -0 1 1 1 -0 -1 -0 0 1 1 0 0 1 1 1 0 0 1 2 2 2 2 1 0 -0 -1 -1 -1 -0 0 1 1 1 0 -0 -0 -0 nan
nan -0 0 -0 -1 -1 -0 0 1 1 1 1 0 -0 -1 -2 -0 0 0 -0 -0 -0 -0 -0 -0 -0 -1 -1 -1 -0 0 0 0 0 0 0 0 0 0 -0 -0 0 -0 -0 -0 -0 0 0 0 0 1 1 -0 -0 -0 -0 0 0 0 0 0 0 0 0 1 1 1 1 1 1 0 0 -0 -0 -0 -0 1 1 1 1 0 -0 -0 -0 -0 nan
nan 0 1 -0 -0 -0 -0 0 1 1 0 0 -0 -0 -1 -1 -0 0 -0 -0 -0 -0 -0 -0 -0 -0 -0 -0 -0 0 1 1 0 0 -0 -0 0 0 0 0 0 0 0 0 -0 -0 0 0 0 0 0 0 -0 0 0 -0 -0 -0 -0 0 0 0 1 1 1 1 0 -0 -0 0 1 1 1 1 0 1 1 1 1 0 0 -0 -0 -0 0 nan
nan 1 1 1 0 0 -0 -0 -0 -0 -1 -0 -0 -0 -1 -1 -1 -1 -0 0 0 0 0 0 0 0 0 0 0 1 1 0 0 -1 -1 -0 -0 0 0 0 0 0 0 0 0 0 0 0 0 0 -0 -1 -0 1 2 0 -0 -0 0 0 1 1 1 2 1 1 -0 -1 -1 -0 0 1 1 1 1 1 0 0 0 0 0 0 0 -0 -0 nan
nan 1 1 0 0 -0 -0 -0 -1 -1 -1 -1 -1 -1 -1 -2 -2 -1 1 1 0 0 0 0 0 0 -0 0 0 0 0 -0 -1 -2 -1 -1 -0 -0 0 0 0 0 0 0 0 0 1 0 0 0 0 0 1 3 3 1 0 1 1 1 2 1 1 1 1 0 -0 -1 -1 -0 0 0 0 0 1 0 0 0 0 0 0 -0 -0 -0 -0 nan
nan 1 0 -0 -0 -1 -1 -1 -1 -1 -1 -1 -1 -1 -1 -2 -2 -1 0 -0 -1 -1 -0 -0 -0 -0 -0 0 0 0 -0 -1 -2 -2 -1 -1 -0 0 0 0 0 0 0 1 1 1 1 2 2 1 1 2 3 4 3 2 1 2 2 2 2 1 0 0 0 -0 -0 -1 -1 -0 0 -0 -0 0 1 0 0 0 0 0 0 -0 -0 -0 -0 nan
nan -0 -0 -1 -1 -1 -1 -2 -1 -1 -1 -0 0 0 -0 -2 -2 -2 -2 -2 -2 -1 -0 -0 -0 -0 0 0 0 -0 -0 -0 -1 -1 -1 -0 1 1 1 0 0 0 0 0 0 1 1 2 3 3 3 2 2 1 1 2 2 2 2 1 1 1 0 0 0 0 0 0 -0 -0 -0 -0 -0 0 -0 -0 -0 0 0 0 0 0 0 -0 -0 nan
nan -0 -1 -1 -1 -1 -1 -1 -0 0 1 2 2 1 -0 -2 -4 -4 -3 -2 -2 -1 -0 -0 0 0 0 -0 -0 -0 -0 -0 0 0 0 1 1 1 1 0 0 0 -0 -0 -0 0 0 0 1 2 3 2 1 0 -0 0 0 1 1 0 0 0 0 1 1 1 1 1 0 -0 -1 -0 -0 -0 -0 -0 -0 -0 -0 0 0 0 0 0 0 nan
nan -1 -1 -0 -0 -0 -1 -0 1 1 2 1 -0 -2 -3 -3 -3 -3 -2 -1 -1 -0 0 1 1 1 0 0 -0 -0 -0 -1 -0 1 1 2 1 1 1 1 1 0 0 -0 -0 0 0 -0 -0 0 2 3 3 1 0 -0 -1 -0 0 0 0 0 0 1 1 1 1 1 0 -0 -0 -0 -0 -0 -0 -0 -0 -0 -0 -0 0 0 0 0 1 nan
nan -1 -1 -0 -0 -1 -1 -1 -1 -2 -2 -3 -4 -4 -3 -1 -1 -1 -1 -0 -0 -0 1 2 2 1 1 1 0 -0 -1 -1 -0 0 0 -0 -0 0 2 3 3 3 2 1 0 1 1 1 0 0 1 2 3 2 1 1 1 0 0 0 0 0 0 1 1 1 0 0 0 0 0 0 -0 -0 -0 -0 -0 -0 -0 -0 0 0 0 1 1 nan
nan -1 -0 -1 -1 -1 -2 -2 -3 -4 -4 -3 -2 -0 1 2 1 1 0 -0 -0 0 1 2 2 2 2 1 0 0 -0 0 1 0 -1 -2 -2 -2 -1 1 3 6 5 3 2 2 2 2 1 1 1 1 1 1 1 1 1 1 1 1 0 0 0 0 -0 -0 -0 -0 0 0 0 0 0 -0 -0 -0 -0 -0 0 0 0 0 0 0 0 nan
nan -1 -1 -2 -2 -1 -1 -2 -3 -3 -2 -0 2 3 3 2 1 1 -0 -1 0 1 1 1 1 1 1 1 2 1 0 1 1 0 -1 -1 -1 -0 -1 -1 -0 2 3 4 5 5 4 3 2 2 2 1 0 -0 -0 -0 0 1 1 1 0 0 -0 -1 -1 -0 -0 -0 0 0 0 -0 -0 -0 -0 -0 0 0 0 0 0 0 0 0 0 nan
nan -0 -1 -2 -1 -1 -0 -1 -2 -2 -0 1 2 2 2 0 -0 -0 -0 0 1 1 0 -0 -1 -1 -0 2 2 0 0 1 1 0 -0 -0 0 0 0 1 0 -1 -2 -1 2 6 7 5 4 3 4 3 1 -0 -0 -0 -0 -0 0 0 -0 -0 -1 -1 -0 -0 0 0 1 1 0 0 -0 -0 0 0 1 1 1 0 0 0 0 0 0 nan
nan -1 -1 -1 -1 0 0 -1 -1 -1 0 1 1 1 0 -0 0 0 0 0 1 0 -0 -1 -3 -3 -0 1 1 0 -0 0 1 1 -1 -0 1 1 1 1 0 -1 -1 -2 -3 -1 3 5 6 5 5 4 2 0 -0 -0 -0 -0 -0 -0 -1 -1 -1 -1 -0 -0 0 0 0 1 1 0 0 -0 0 1 1 1 0 0 0 0 0 0 0 nan
nan -1 -1 -1 -1 1 1 -0 -0 -0 -0 -1 -0 0 0 0 1 0 0 0 -1 -1 -1 -2 -3 -2 -1 -0 1 1 0 0 2 2 -1 -2 1 3 3 1 1 -0 -1 -2 -2 -2 -2 -1 1 5 7 7 4 2 1 1 0 0 0 -0 -0 -0 -0 -0 -1 -1 -0 -0 -0 0 0 1 0 0 0 0 0 -0 -0 -0 -0 0 -0 -0 -0 nan
nan -0 -1 -1 0 1 0 -0 -1 -1 -2 -1 -0 0 0 0 1 0 -0 -1 -1 -1 -1 -1 -1 -1 -1 0 2 2 1 1 2 1 -2 -2 1 3 3 2 2 1 -1 -2 -2 -1 -2 -2 -1 1 3 4 4 3 2 2 2 2 2 2 2 1 1 1 0 -0 -0 -0 -0 0 0 1 1 0 0 -0 -0 -0 -0 -0 -0 -0 -0 -0 -0 nan
nan -0 -1 -1 0 0 -0 -0 -0 -1 -1 -1 0 0 -0 0 0 -0 -1 -0 -0 -0 -0 -1 -1 -0 0 1 1 2 2 2 1 -0 -2 -2 1 3 2 3 3 1 -1 -1 -1 -1 -2 -1 -1 -0 0 0 0 1 1 0 0 0 0 0 1 1 1 1 1 1 0 -0 -0 0 0 0 1 0 -0 -0 -0 -0 -0 -0 -0 -0 -0 -0 -0 nan
nan -1 -1 -0 0 -0 -1 0 0 -0 -1 -0 0 -1 -1 -0 -1 -1 -0 0 0 0 -0 -1 -1 -0 1 1 1 1 2 2 1 -1 -1 -1 -0 1 2 2 2 0 -1 -1 0 0 -0 -1 -1 -0 1 1 1 0 -0 0 0 0 -0 -0 -0 0 0 1 1 1 1 0 0 0 0 0 0 0 0 -0 -0 -0 -0 0 0 0 0 0 0 nan
nan -1 -1 -0 -0 -0 -0 0 0 0 0 0 -1 -2 -1 -1 -1 -1 0 0 0 -0 -1 -1 -1 0 1 1 1 1 2 2 1 0 -1 -3 -2 0 1 1 1 0 -1 -0 1 1 0 -0 -1 -1 0 1 1 1 0 0 0 0 0 -0 0 0 0 1 1 1 1 1 1 0 0 0 0 0 0 0 0 0 0 0 0 0 0 0 0 nan
nan -1 -0 -0 -0 -0 0 0 1 1 1 -0 -1 -2 -2 -1 -1 -1 -0 0 -0 -0 -1 -1 0 1 1 1 1 1 1 1 1 1 -1 -4 -3 -0 1 1 1 -1 -1 0 2 2 1 0 -1 -1 -1 -0 0 0 0 0 0 0 -0 -0 -0 -0 -0 0 0 0 0 0 0 0 0 0 0 0 0 0 0 0 0 0 0 0 0 0 -0 nan
nan -1 -0 -0 -0 -0 0 0 1 1 0 -0 -1 -1 -1 -1 -2 -1 -1 -0 -0 0 0 1 2 1 1 1 1 0 0 1 1 1 -1 -4 -3 -0 1 1 -0 -1 -1 0 1 2 1 0 -0 -0 -0 -0 -0 -0 0 0 0 0 0 -0 -0 -0 -0 -0 -0 -0 0 0 0 0 0 0 0 0 0 0 0 0 0 0 0 0 -0 -0 -0 nan
nan -1 -0 -0 -0 -0 -0 0 0 1 0 0 -0 -1 -1 -2 -2 -1 -0 0 1 1 2 2 0 -0 0 1 -0 -1 -0 1 1 1 -1 -2 -2 -0 1 1 -0 -1 -1 0 1 1 1 0 -0 0 0 0 0 0 0 0 0 0 0 0 -0 -0 -0 -0 -0 -0 -0 -0 -0 -0 -0 0 0 0 0 0 -0 -0 -0 -0 0 0 -0 -0 -0 nan
nan -0 -0 -0 -0 0 -0 -0 0 0 0 0 0 -0 -1 -1 -0 0 1 0 1 2 2 0 -2 -2 -0 -0 -1 -1 0 1 1 0 -0 -1 -1 -1 0 0 -0 -1 -1 0 1 1 0 -0 -0 -0 0 0 0 0 0 0 -0 -0 -0 -0 -0 -0 -0 -0 -0 -0 -0 -0 -0 -0 -0 -0 0 0 0 -0 -0 -0 -0 0 0 0 0 0 0 nan
nan -0 -0 -0 0 0 -0 -0 -0 -0 -0 0 0 0 0 1 1 1 -0 -1 0 1 1 -2 -3 -2 -1 -1 -1 -0 1 1 0 0 0 0 -1 -1 -0 0 1 0 -0 -0 0 1 0 -0 -0 -0 -0 -0 -0 0 0 0 -0 -0 -0 -0 -0 -0 -0 -0 -0 -0 -0 -0 -0 -0 -0 -0 -0 -0 -0 -0 -0 -0 -0 0 0 0 0 0 0 nan
nan -0 -0 0 -0 0 0 -0 -0 -0 -0 -0 0 1 1 2 1 -1 -2 -1 -0 1 -1 -2 -2 -2 -2 -2 -0 1 1 0 -0 0 1 1 -1 -1 -0 1 1 1 -0 -1 -0 0 0 -0 -0 -0 -0 -0 -0 -0 0 0 -0 -0 -0 -0 -0 -0 -0 -0 -0 -0 -0 -0 -0 -0 -0 -0 -0 -0 -0 -0 -0 -0 0 0 0 0 0 0 0 nan
nan -0 -0 -0 -0 -0 0 0 0 0 0 0 0 1 1 1 -0 -1 -1 -0 0 -0 -1 -2 -2 -2 -2 -0 1 1 1 -0 -0 0 1 1 -1 -1 -0 1 1 1 -0 -1 -1 0 0 -0 -0 -0 -0 -0 -0 -0 -0 -0 -0 0 0 0 -0 -0 -0 -0 -0 -0 -0 -0 -0 -0 -0 -0 -0 -0 -0 -0 -0 0 0 0 0 0 0 0 0 nan
nan -0 -0 -0 -0 0 0 0 0 0 0 0 0 0 0 -0 -1 -1 0 0 -0 -1 -1 -1 -1 -1 -1 0 0 -0 -1 -0 0 1 1 0 -0 -0 0 0 1 1 0 -0 -1 -1 -1 -0 -0 0 0 0 -0 -0 -0 -0 -0 -0 0 0 -0 -0 -0 -0 -0 -0 -0 -0 -0 -0 -0 -0 -0 -0 -0 0 0 0 0 0 -0 -0 -0 -0 -0 nan
nan 0 -0 -0 -0 -0 0 0 0 0 0 0 0 0 -0 -1 -1 -1 0 0 0 -1 -1 -1 -0 0 1 -0 -2 -3 -1 0 1 1 1 -0 -0 0 1 1 1 1 1 -0 -1 -2 -1 -0 0 0 0 0 0 -0 -0 -0 -0 -0 -0 0 0 -0 -0 -0 -0 -0 -0 -0 -0 -0 -0 -0 -0 -0 -0 0 0 -0 -0 -0 -0 -0 -0 -0 -0 nan
nan 0 0 0 0 -0 -0 0 0 0 0 0 -0 -0 -1 -1 -1 -0 -0 0 0 -0 -1 -1 -0 0 1 -1 -3 -3 -1 0 1 1 1 0 0 1 1 1 0 0 0 0 -0 -1 -1 -0 1 0 0 -0 -0 -0 -0 -0 -0 -0 -0 0 0 -0 -0 -0 -0 -0 -0 -0 -0 -0 -0 -0 -0 -0 -0 -0 -0 -0 -0 -0 -0 -0 -0 -0 -0 nan
nan 0 0 0 0 0 0 0 0 0 0 -0 -0 -1 -1 -0 -0 -0 -0 -0 -0 -0 -0 -0 -0 0 0 -1 -2 -2 -1 0 1 1 1 0 0 0 1 1 0 0 0 0 -0 -1 -1 -1 -0 0 -0 -0 -0 -0 -0 -0 -0 -0 -0 0 -0 -0 -0 -0 -0 -0 -0 -0 -0 -0 -0 -0 -0 -0 -0 -0 -0 -0 -0 -0 -0 -0 -0 -0 -0 nan
nan 0 -0 -0 -0 0 0 0 0 -0 -0 -0 -0 -1 -0 -0 -0 -0 -0 -0 -0 -0 0 -0 -0 -0 -0 -0 -1 -1 -0 0 0 0 0 0 0 0 1 0 0 0 0 0 0 -0 -0 -0 -0 -0 -0 -0 -0 -0 -0 -0 -0 -0 -0 -0 -0 -0 -0 -0 0 -0 -0 -0 -0 -0 -0 -0 -0 -0 -0 -0 -0 -0 -0 -0 -0 -0 -0 -0 -0 nan
nan 0 0 0 -0 -0 -0 0 0 -0 -0 -0 -0 -0 -0 -0 -0 -0 -0 -0 -0 -0 0 -0 -0 -0 0 -0 -1 -1 -1 0 0 -0 -0 0 0 0 0 0 -0 0 0 0 0 -0 -0 -0 -0 -0 -0 -0 -0 -0 -0 -0 -0 -0 -0 0 -0 -0 -0 -0 -0 -0 -0 -0 -0 -0 -0 -0 -0 -0 -0 -0 -0 -0 -0 -0 -0 -0 -0 -0 -0 nan
nan -0 0 0 -0 -0 -0 -0 -0 -0 -0 -0 -0 -0 -0 -0 -0 -0 -0 -0 -0 -0 -0 -0 -0 -0 0 -0 -0 -1 -1 -0 -0 -0 -0 -0 0 0 0 -0 -0 0 0 0 -0 -0 -0 -0 -0 -0 -0 -0 -0 -0 -0 0 -0 -0 0 0 0 -0 -0 -0 -0 -0 -0 -0 -0 -0 -0 -0 -0 -0 -0 -0 -0 -0 -0 -0 -0 -0 -0 -0 -0 nan
nan 0 0 -0 -0 -0 -0 0 0 -0 -0 -0 -0 -0 -0 -0 -0 -0 -0 -0 -0 -0 -0 -0 -0 -0 -0 -0 -0 -1 -1 -0 -0 -0 -0 -0 0 0 0 -0 -0 0 0 -0 -0 -0 -0 -0 -0 -0 0 0 -0 -0 -0 0 0 0 0 0 -0 -0 -0 -0 -0 -0 -0 -0 -0 -0 -0 -0 -0 -0 -0 -0 -0 -0 -0 -0 -0 -0 -0 -0 -0 nan
nan -0 -0 0 -0 -0 -0 -0 -0 -0 -0 -0 -0 -0 -0 -0 -0 -0 -0 -0 -0 -0 -0 -0 -0 -0 -0 -0 -0 -0 -0 -0 -0 -0 -0 -0 0 0 0 0 0 0 -0 -0 -0 -0 -0 -0 -0 -0 -0 -0 -0 -0 -0 -0 -0 -0 0 -0 -0 -0 -0 -0 -0 -0 -0 -0 -0 -0 -0 -0 -0 -0 -0 -0 -0 -0 -0 -0 -0 -0 -0 -0 -0 nan
nan -0 -0 0 0 0 -0 -0 -0 -0 -0 -0 -0 -0 -0 -0 -0 -0 -0 -0 -0 -0 -0 -0 -0 -0 -0 -0 -0 -0 -0 -0 -0 -0 0 0 -0 0 0 0 0 -0 -0 -0 -0 -0 -0 -0 -0 -0 -0 -0 -0 -0 -0 -0 -0 -0 -0 -0 -0 -0 -0 -0 -0 -0 -0 -0 -0 -0 -0 -0 -0 -0 -0 -0 -0 -0 -0 -0 -0 -0 -0 -0 -0 nan
nan -0 -0 -0 -0 -0 -0 -0 -0 -0 -0 -0 -0 -0 -0 0 0 0 -0 -0 0 0 -0 -0 -0 -0 -0 -0 -0 -0 -0 -0 -0 -0 -0 -0 -0 -0 0 0 -0 -0 -0 -0 -0 -0 -0 0 -0 -0 -0 -0 -0 -0 -0 -0 -0 -0 -0 -0 -0 -0 -0 -0 -0 -0 -0 -0 -0 -0 -0 -0 -0 -0 -0 -0 -0 -0 -0 -0 -0 -0 -0 -0 -0 nan
nan -0 -0 -0 -0 -0 -0 -0 -0 -0 -0 -0 -0 -0 -0 0 0 0 -0 -0 0 -0 -0 -0 -0 -0 -0 -0 0 -0 -0 -0 -0 -0 -0 -0 -0 -0 0 0 -0 -0 -0 -0 -0 -0 -0 -0 -0 -0 -0 -0 -0 -0 -0 -0 -0 -0 -0 -0 -0 -0 -0 -0 -0 -0 -0 -0 -0 -0 -0 -0 -0 -0 -0 -0 -0 -0 -0 -0 -0 -0 -0 -0 -0 nan
nan -1 -0 -0 -1 -1 -1 -0 -0 -1 -1 -1 -1 -0 -0 0 -0 -0 -0 -0 -0 -0 -0 -0 -0 0 -0 -0 -0 0 -0 -0 -0 -0 -0 -0 -0 -0 0 0 -0 -0 -0 -0 0 0 -0 -0 -0 -0 -0 -0 -0 -0 -0 -0 -0 -0 -0 -0 -0 -0 -0 -0 -0 -0 -0 -0 -0 -0 -0 -0 -0 -0 -0 -0 -0 -0 -0 -0 -0 -0 -0 -0 -0 nan
nan -0 -0 -1 -1 -1 -1 -1 -1 -1 -1 -0 -0 -0 -0 -0 -0 -0 -0 -0 -0 -0 -0 -0 -0 -0 -0 -0 -0 -0 -0 -0 -0 -0 -0 -0 -0 -0 -0 -0 -0 -0 -0 -0 -0 -0 -0 -0 -0 -0 -0 -0 -0 -0 -0 -0 -0 -0 -0 -0 -0 -0 -0 -0 -0 -0 -0 -0 -0 -0 -0 -0 -0 -0 -0 -0 -0 -0 -0 -0 -0 -0 -0 -0 -0 nan
nan -0 -0 -0 -0 -0 -1 -0 -0 -0 0 0 0 -0 -0 -0 -1 -1 -0 -0 -0 -0 -0 -0 -0 -0 -0 -0 -0 -0 -0 -0 -0 -0 -0 -0 -0 -0 -0 -0 -0 -0 -0 -0 -0 -0 -0 -0 -0 -0 -0 -0 -0 -0 -0 -0 -0 -0 -0 -0 -0 -0 -0 -0 -0 -0 -0 -0 -0 -0 -0 -0 -0 -0 -0 -0 -0 -0 -0 -0 -0 -0 -0 -0 -0 nan
nan -0 -0 -0 -0 -0 -0 -0 -0 0 0 0 -0 -0 -0 -0 -0 -0 -0 -0 -0 -0 -0 -0 -0 -0 -0 -0 -0 -0 -0 -0 -0 -0 -0 -0 -0 -0 -0 -0 -0 -0 -0 -0 -0 -0 -0 -0 -0 -0 -0 -0 -0 -0 -0 -0 -0 -0 -0 -0 -0 -0 -0 -0 -0 -0 -0 -0 -0 -0 -0 -0 -0 -0 -0 -0 -0 -0 -0 -0 -0 -0 -0 -0 -0 nan
nan -0 -0 -0 -0 -0 -0 -0 -0 -0 -0 -0 -0 -0 -0 -0 -0 -0 -0 -0 -0 -0 -0 -0 -0 -0 -0 -0 -0 -0 -1 -0 -0 -0 -0 -0 -0 -0 -0 -0 -0 -0 -0 -0 -0 -0 -0 -0 -0 -0 -0 -0 -0 -0 -0 -0 -0 -0 -0 -0 -0 -0 -0 -0 -0 -0 -0 -0 -0 -0 -0 -0 -0 -0 -0 -0 -0 -0 -0 -0 -0 -0 -0 -0 -0 nan
nan -0 -0 -0 -0 -0 -0 -0 -0 -0 -0 -0 -0 -0 -0 -0 -0 -0 -0 -0 -0 -0 -0 -0 -0 -0 -0 -0 -0 -0 -0 -0 -0 -0 -0 -0 -0 -0 -0 -0 -0 -0 -0 -0 -0 -0 -0 -0 -0 -0 -0 -0 -0 -0 -0 -0 -0 -0 -0 -0 -0 -0 -0 -0 -0 -0 -0 -0 -0 -0 -0 -0 -0 -0 -0 -0 -0 -0 -0 -0 -0 -0 -0 -0 -0 nan
nan -0 -0 -0 -0 -0 -0 -0 -0 -0 -0 -0 -0 -0 -0 -0 -0 -0 -0 -0 -0 -0 -0 -0 -0 -0 -0 -0 -0 -0 -0 -0 -0 -0 -0 -0 -0 -0 -0 -0 -0 -0 -0 -0 -0 -0 -0 -0 -0 -0 -0 -0 -0 -0 -0 -0 -0 -0 -0 -0 -0 -0 -0 -0 -0 -0 -0 -0 -0 -0 -0 -0 -0 -0 -0 -0 -0 -0 -0 -0 -0 -0 -0 -0 -0 nan
nan -0 -0 -0 -0 -0 -0 -0 -0 -0 -0 -0 -0 -0 -0 -0 -0 -0 -0 -0 -0 -0 -0 -0 -0 -0 -0 -0 -0 -0 -0 -0 -0 -0 -0 -0 -0 -0 -0 -0 -0 -0 -0 -0 -0 -0 -0 -0 -0 -0 -0 -0 -0 -0 -0 -0 -0 -0 -0 -0 -0 -0 -0 -0 -0 -0 -0 -0 -0 -0 -0 -0 -0 -0 -0 -0 -0 -0 -0 -0 -0 -0 -0 -0 -0 nan
nan -0 -0 -0 -0 -0 -0 -0 -0 -0 -0 -0 -0 -0 -0 -0 -0 -0 -0 -0 -0 -0 -0 -0 -0 -0 -0 -0 -0 -0 -0 -0 -0 -0 -0 -0 -0 -0 -0 -0 0 0 0 -0 -0 -0 -0 -0 -0 -0 -0 -0 -0 -0 -0 -0 -0 -0 -0 -0 -0 -0 -0 -0 -0 -0 -0 -0 -0 -0 -0 -0 -0 -0 -0 -0 -0 -0 -0 -0 -0 -0 -0 -0 -0 nan
nan nan nan nan nan nan nan nan nan nan nan nan nan nan nan nan nan nan nan nan nan nan nan nan nan nan nan nan nan nan nan nan nan nan nan nan nan nan nan nan nan nan nan nan nan nan nan nan nan nan nan nan nan nan nan nan nan nan nan nan nan nan nan nan nan nan nan nan nan nan nan nan nan nan nan nan nan nan nan nan nan nan nan nan nan nan
Wind_Speed
19 19 19 20 22 24 25 26 26 27 28 28 28 28 28 27 26 26 25 24 23 22 21 20 19 19 20 23 24 26 27 27 25 22 18 14 10 7 6 5 6 7 8 8 9 10 11 12 12 11 9 7 4 4 8 16 19 19 19 30 47 58 58 58 58 57 57 54 49 43 39 37 35 34 33 32 33 35 36 37 37 34 31 28 26 24
19 19 20 21 22 24 25 26 26 27 28 29 29 29 29 29 28 27 27 26 25 23 22 21 20 19 19 21 23 25 26 26 25 23 20 17 13 9 8 9 10 10 10 10 11 12 14 15 14 12 10 7 5 6 10 16 18 19 27 44 55 58 57 57 57 56 54 50 45 40 37 36 35 34 34 34 36 38 39 38 36 32 28 26 25 24
20 21 21 22 23 24 25 26 26 27 28 29 29 29 30 30 30 29 28 27 26 25 23 22 21 19 18 19 21 24 25 25 25 24 23 20 16 12 10 9 10 11 12 12 12 13 14 14 14 13 11 9 8 9 11 12 14 23 41 53 57 57 56 55 53 50 47 44 40 38 37 36 35 35 35 36 38 39 39 36 33 29 25 24 24 23
20 21 22 22 23 24 25 26 26 27 28 28 29 29 30 31 31 30 29 28 27 26 24 23 21 20 19 19 20 22 24 25 25 24 24 23 20 17 14 11 9 8 8 9 10 10 11 11 12 12 11 11 11 11 10 8 17 33 49 54 54 52 51 48 45 42 41 40 39 39 38 36 35 35 35 36 37 37 36 33 29 26 24 23 22 21
20 21 21 22 23 24 25 25 26 27 27 28 29 30 31 32 32 31 30 29 29 27 26 24 23 21 20 19 20 21 23 24 24 24 24 23 22 21 19 16 13 11 9 7 7 7 8 8 8 9 9 10 12 13 10 12 24 39 47 48 47 44 42 41 40 40 40 40 40 39 37 35 34 33 34 34 34 33 31 28 26 24 23 22 20 19
20 20 21 22 23 24 25 25 26 27 28 29 30 30 32 32 33 32 32 31 30 29 27 26 24 22 20 20 20 20 21 22 23 24 24 23 22 21 21 19 17 15 12 10 8 6 7 6 5 5 6 9 13 14 13 18 29 40 43 43 42 40 39 40 41 41 41 41 40 39 37 35 33 31 31 31 30 28 27 26 24 23 21 20 19 18
20 20 20 21 22 24 24 25 26 27 29 29 30 31 32 33 34 34 33 32 31 30 28 27 25 23 21 20 19 19 20 21 22 23 23 23 22 21 20 19 18 17 15 13 11 9 7 5 3 1 5 9 13 16 17 22 33 42 42 42 42 42 42 43 43 42 40 39 38 38 37 35 33 31 29 28 26 25 24 24 23 21 20 20 19 18
20 21 21 21 22 24 25 25 26 28 29 30 30 31 33 34 35 35 34 34 32 31 29 28 26 25 23 21 20 19 20 21 23 24 24 23 22 21 20 19 19 18 16 15 14 13 12 9 6 4 7 12 15 19 23 31 40 45 44 44 44 44 44 43 40 38 36 35 34 35 35 35 34 32 28 26 24 23 23 22 21 20 20 20 18 16
21 22 22 22 23 24 25 26 27 28 29 30 30 32 33 35 36 36 36 35 34 33 30 29 27 26 25 23 22 22 22 23 24 25 25 25 24 23 22 21 20 20 19 20 20 21 22 22 20 19 19 21 25 29 36 43 47 48 47 46 45 43 41 38 35 32 31 31 32 33 35 35 34 31 27 25 23 23 22 21 19 18 17 16 15 13
22 22 22 23 24 25 26 27 27 28 29 29 29 31 33 35 36 37 37 37 36 34 31 30 29 28 27 25 25 25 26 26 25 25 26 26 26 25 24 24 24 24 25 26 28 30 32 34 36 36 38 40 43 46 49 51 50 49 47 45 42 39 35 32 31 30 30 31 33 34 35 35 32 28 24 22 22 22 22 21 19 17 16 15 15 15
23 23 23 24 24 25 26 27 28 28 29 29 29 30 32 35 36 37 37 37 36 35 33 31 29 29 29 28 28 28 29 29 29 27 27 27 27 27 27 27 27 28 29 30 32 35 37 40 43 45 47 49 51 52 51 50 48 45 43 39 36 33 31 31 31 32 33 34 35 36 36 33 29 25 21 20 21 22 22 21 20 19 18 17 18 19
24 24 25 25 26 27 28 29 29 30 30 31 31 32 33 34 35 35 36 36 36 35 35 33 31 30 30 31 31 31 31 33 33 33 31 30 30 30 30 30 30 30 31 32 34 35 36 37 40 42 45 47 48 48 46 44 41 39 35 32 30 30 30 32 34 35 36 37 37 36 35 31 27 24 22 22 23 22 21 20 19 19 18 18 19 21
25 25 26 27 28 29 30 31 32 32 33 33 33 32 32 32 33 34 35 35 35 35 34 34 33 32 31 32 33 34 35 36 37 37 36 36 36 37 36 36 35 34 34 34 34 34 33 33 34 37 40 44 46 45 43 40 36 33 30 28 27 28 30 33 35 36 37 37 35 34 32 29 27 25 24 23 22 21 18 17 17 17 18 18 19 21
26 26 27 28 29 30 31 32 32 33 33 32 31 30 30 31 32 33 34 35 35 35 34 34 34 33 32 33 33 35 37 38 38 38 39 41 42 42 42 41 40 39 38 38 38 36 34 33 33 35 37 41 44 44 42 38 35 31 29 28 28 30 32 34 36 36 36 34 32 30 28 26 24 22 20 19 17 16 16 15 16 16 16 17 18 20
27 27 28 29 29 29 30 31 31 31 31 30 29 28 29 30 32 34 34 35 35 35 35 35 34 34 33 33 33 34 35 36 36 37 39 40 41 42 42 43 42 42 41 43 43 41 38 37 37 37 37 38 38 38 37 36 34 32 31 31 32 33 35 36 36 35 34 31 29 27 24 21 18 15 13 12 13 14 15 15 15 15 14 15 16 18
27 28 28 28 28 28 29 29 30 30 29 29 28 28 29 31 32 34 35 35 35 35 36 36 36 36 35 33 32 32 33 34 35 35 36 37 37 37 38 39 39 40 41 42 42 42 42 42 41 40 38 37 35 33 32 33 33 34 34 35 36 36 36 35 34 32 30 29 26 23 20 16 12 8 8 9 11 13 14 14 14 13 12 13 14 15
27 27 28 28 27 27 27 28 28 28 28 28 28 29 29 30 31 33 34 35 35 36 36 37 37 37 36 34 33 32 33 34 34 34 34 36 36 35 34 34 35 36 37 38 38 38 40 42 42 42 40 37 34 32 31 32 34 36 37 38 37 36 34 31 29 28 26 24 21 19 17 14 10 7 7 9 10 12 12 12 12 11 10 10 11 12
27 27 27 27 27 26 27 27 27 27 28 28 28 28 28 29 30 31 33 34 35 36 36 37 37 37 36 35 34 33 33 34 34 33 34 36 36 35 33 33 33 32 32 33 34 34 34 35 37 38 39 38 36 34 34 35 37 38 39 39 37 34 31 28 25 23 21 18 17 15 15 13 10 8 8 9 10 11 12 12 11 10 9 8 8 8
27 27 27 27 26 26 26 26 27 27 27 27 27 27 27 28 28 30 31 32 33 34 35 35 35 35 34 33 32 32 33 33 33 34 35 36 36 35 34 33 33 32 31 31 31 30 30 30 31 31 32 34 35 36 35 35 36 36 35 35 34 33 30 28 24 21 18 16 14 14 14 13 11 10 10 10 11 11 12 11 10 8 7 6 5 5
26 27 27 26 26 26 26 26 26 26 26 26 26 26 26 27 27 28 29 30 31 31 32 32 32 32 31 30 30 30 30 31 32 34 35 36 36 35 34 33 33 33 32 32 30 29 29 29 29 29 28 28 27 27 27 25 24 23 22 22 22 22 23 22 21 19 17 15 14 14 14 14 14 14 14 13 13 12 11 10 9 7 6 4 3 3
26 26 26 26 25 25 25 25 25 25 25 26 26 26 26 26 26 26 27 27 27 28 29 30 29 29 28 27 27 26 27 28 30 32 33 34 34 34 33 33 32 32 33 32 31 30 29 30 30 29 28 27 26 25 23 22 20 18 16 14 13 13 14 15 15 16 15 15 15 15 16 17 17 17 16 14 12 10 9 8 7 6 4 3 2 2
26 26 26 25 25 25 24 24 24 24 25 25 25 26 26 26 26 25 25 24 25 25 26 26 26 25 24 24 24 23 23 24 26 28 30 31 32 32 31 30 30 30 31 30 29 28 28 28 28 27 27 25 24 22 21 20 19 17 15 13 12 12 12 12 13 13 14 14 15 16 17 18 17 16 14 11 9 7 6 6 5 4 3 2 1 1
25 25 25 25 25 24 24 23 23 24 24 25 25 26 26 25 24 24 23 23 23 23 23 23 23 22 22 22 22 21 21 21 21 23 26 29 30 29 28 27 27 28 28 27 26 25 25 25 24 24 23 22 21 20 19 18 17 16 14 12 11 11 11 11 11 11 11 12 12 13 13 14 14 13 11 8 7 6 5 5 4 3 2 1 1 0
24 24 25 24 24 24 23 23 22 23 23 24 25 25 26 25 24 23 23 22 22 22 22 22 22 22 23 23 23 22 22 21 20 21 23 26 27 26 25 25 26 26 26 25 24 23 23 22 22 21 20 19 19 18 18 17 16 15 14 12 11 10 9 9 9 9 9 8 8 8 8 9 9 9 8 7 6 6 6 6 6 5 4 3 3 3
23 23 23 24 23 23 23 23 22 22 23 23 24 25 25 25 24 23 23 23 22 22 22 22 23 24 25 25 25 25 24 23 21 21 23 25 26 25 24 24 24 25 25 25 23 22 21 21 20 19 18 18 18 17 17 16 15 14 13 12 10 9 8 8 7 7 6 6 6 6 7 7 7 7 7 7 7 7 8 8 8 8 7 6 6 6
21 22 22 22 23 23 23 23 23 23 23 23 23 24 24 23 22 22 23 23 23 22 22 24 25 26 26 26 27 27 26 25 24 24 24 25 26 25 24 23 23 24 24 24 23 22 21 21 21 20 20 20 19 18 17 16 15 14 13 12 11 10 9 8 7 6 6 6 7 7 7 6 6 6 7 7 8 9 10 11 10 9 8 8 8 8
20 21 21 21 21 21 22 22 22 23 23 23 23 22 22 21 21 22 23 23 23 23 24 26 27 27 27 27 27 27 26 26 25 25 25 25 26 25 24 22 22 22 23 23 22 21 21 21 21 21 20 20 20 19 19 17 16 15 14 13 12 12 11 10 9 9 8 8 8 7 7 7 7 7 8 9 10 11 11 11 10 10 9 8 8 8
19 19 19 20 20 20 21 21 21 22 22 22 22 21 20 20 21 23 24 24 23 23 24 26 27 27 27 27 26 26 25 25 25 25 24 24 25 25 23 21 20 20 21 21 20 20 19 20 20 20 19 19 19 19 18 17 16 16 15 15 14 14 13 12 12 11 10 9 8 8 7 7 8 8 9 10 11 11 11 11 10 9 8 8 8 9
18 18 18 19 19 19 19 20 20 21 21 21 20 20 20 21 22 23 24 24 23 24 24 25 26 26 26 25 25 25 25 25 24 24 23 23 23 23 21 20 18 18 18 19 19 19 19 19 19 19 18 18 17 17 17 16 15 15 15 14 14 14 13 13 12 11 11 10 9 8 7 7 8 9 10 11 11 11 10 10 9 8 8 9 9 9
17 17 17 18 18 18 18 18 19 19 19 19 19 20 20 22 23 24 23 23 23 24 24 24 24 24 24 24 24 25 25 24 23 23 22 22 22 21 19 18 17 16 16 17 18 19 19 19 18 18 17 16 16 15 15 14 14 14 14 13 13 12 12 12 12 11 11 10 10 9 8 8 8 9 10 10 10 9 9 9 9 9 9 9 10 10
16 16 16 17 17 17 17 17 17 18 18 18 19 19 20 21 22 23 22 22 22 23 23 23 23 22 22 23 24 25 24 22 21 21 21 21 21 19 18 17 16 15 15 15 16 16 17 17 16 16 15 15 14 14 13 13 13 12 12 12 11 11 11 11 11 11 11 11 11 10 9 9 8 8 8 8 8 8 8 8 8 9 9 10 10 10
15 15 16 16 16 16 16 16 16 17 17 17 18 19 20 21 21 21 21 21 21 22 22 22 22 21 21 22 23 24 22 21 20 19 19 20 19 18 17 16 16 16 15 15 15 14 12 14 15 14 13 13 12 12 12 11 11 11 10 10 10 10 10 10 11 11 11 11 11 10 10 9 8 8 7 7 7 7 7 7 8 8 9 9 10 10
15 15 15 15 15 15 15 15 15 16 16 17 17 18 19 19 19 20 20 20 20 20 20 20 20 20 20 21 22 22 21 19 18 18 17 17 17 16 15 15 15 15 15 14 15 14 13 14 13 12 11 11 10 10 10 10 9 9 9 9 9 9 9 9 9 10 10 10 10 10 10 9 8 7 7 6 6 6 6 7 7 7 8 8 9 9
16 16 16 15 15 15 15 15 15 15 15 16 16 17 17 18 18 18 19 19 19 19 19 19 19 19 19 20 20 20 19 18 17 17 16 15 15 15 14 13 13 13 13 13 13 13 13 13 12 11 11 10 9 9 9 9 9 8 8 8 8 8 8 8 9 9 9 9 9 9 9 9 8 8 7 6 6 6 6 6 6 6 6 7 8 8
16 16 16 16 15 15 15 15 15 15 15 15 16 16 16 16 17 17 17 17 17 17 17 17 18 18 18 18 18 19 18 17 17 16 16 14 13 13 12 12 12 11 11 11 11 11 11 11 11 10 10 10 9 9 9 9 9 8 8 8 8 8 8 7 8 8 8 8 8 8 9 8 8 8 7 7 6 6 6 6 6 6 6 6 7 8
16 16 16 16 16 15 15 15 16 16 15 15 15 15 15 15 15 16 16 16 16 16 16 16 16 16 17 17 17 17 17 16 16 16 15 14 13 12 11 11 11 10 10 9 9 9 10 10 9 9 9 9 9 9 9 8 8 8 8 8 7 7 7 7 7 7 7 7 7 8 8 8 8 7 7 7 6 6 6 7 7 6 6 6 6 7
15 16 16 15 15 15 15 15 16 16 16 15 15 15 15 15 15 15 15 15 14 14 14 14 14 15 15 15 15 16 16 15 15 14 14 14 13 12 11 11 11 10 9 9 8 8 8 8 8 7 7 7 8 8 8 8 8 7 7 7 7 7 7 6 6 6 6 6 6 7 7 7 7 7 7 7 6 6 6 6 6 6 6 6 6 7
14 15 15 15 15 15 15 15 15 16 16 16 15 15 14 14 14 14 14 14 13 13 12 12 12 13 13 13 14 14 14 14 13 13 13 12 12 11 11 10 10 10 9 9 8 8 8 7 7 6 6 6 6 6 6 6 6 6 6 7 6 6 6 6 6 5 5 5 5 5 5 6 6 6 7 7 7 7 6 6 6 6 6 5 6 6
13 13 14 14 14 14 14 14 15 15 16 16 15 15 15 14 14 14 14 14 13 13 12 11 11 11 11 11 11 12 12 12 11 11 11 11 11 11 10 10 10 10 9 9 9 9 8 7 6 6 6 5 5 5 5 5 5 5 6 6 6 6 5 6 6 5 5 5 4 4 5 5 5 6 6 6 6 6 6 6 6 6 5 5 6 6
12 12 13 13 13 13 13 14 14 14 15 15 15 15 15 14 14 14 13 13 13 13 13 12 11 10 10 9 9 10 10 10 10 10 10 10 10 10 9 9 9 9 9 9 8 8 8 8 7 7 7 6 6 5 5 5 4 4 5 5 5 5 5 5 5 5 5 5 4 4 4 5 5 6 6 6 6 6 6 6 6 6 5 5 6 6
12 12 12 12 12 12 13 13 13 13 13 14 15 15 15 14 14 14 13 13 13 13 13 12 11 10 9 9 8 8 8 8 8 8 8 8 8 8 8 8 8 8 8 8 8 8 8 8 8 8 8 7 7 6 6 5 5 4 4 3 3 4 4 4 4 5 5 5 4 4 4 5 5 5 6 6 6 6 6 6 6 5 5 5 5 5
12 12 13 12 12 12 13 13 13 13 13 14 14 15 14 14 15 15 15 14 13 13 13 12 11 10 9 8 8 8 7 7 7 7 7 7 7 7 7 7 8 8 8 7 7 7 7 8 8 8 8 8 7 7 7 7 6 5 4 4 4 4 4 4 4 4 4 4 4 4 4 5 5 5 5 5 5 6 6 5 5 5 4 4 4 4
12 12 12 12 12 13 13 13 13 13 13 13 13 14 14 14 14 15 14 14 13 13 13 12 11 10 9 8 7 7 7 7 7 7 7 7 7 7 7 7 7 7 7 7 7 7 7 7 7 8 8 7 7 7 7 7 6 6 5 5 5 5 5 4 4 4 4 4 4 4 5 5 5 5 5 5 5 5 5 5 4 4 4 4 4 4
12 12 12 12 12 13 13 13 13 12 12 12 12 13 13 13 14 14 14 13 13 13 13 13 12 10 9 9 8 8 7 8 8 7 7 7 7 7 7 7 6 6 6 6 7 7 7 7 7 7 7 7 7 6 6 6 6 6 5 6 5 5 5 4 4 3 3 4 4 4 5 5 5 5 5 5 5 5 4 4 4 3 3 4 4 4
11 11 11 12 12 11 11 11 11 11 11 11 11 12 13 13 13 13 13 13 13 13 12 12 11 10 10 9 9 9 9 8 8 8 8 8 8 8 8 7 7 6 6 6 6 6 6 7 7 7 7 6 6 6 6 6 5 5 5 5 5 5 5 5 4 4 4 4 4 4 5 5 5 5 4 4 4 4 4 4 4 4 4 4 4 4
11 11 11 11 11 10 10 10 10 10 10 11 11 11 12 12 12 12 13 13 12 12 12 12 11 10 10 10 10 9 9 8 8 8 8 8 9 9 9 8 7 6 6 5 5 6 6 6 7 7 7 6 6 6 5 5 5 5 5 5 4 4 4 5 4 4 5 5 5 5 5 5 5 4 4 4 3 3 4 4 4 4 4 4 5 5
10 10 10 10 10 10 10 10 10 10 10 10 10 11 11 11 11 12 12 12 12 12 12 11 11 10 10 10 10 9 8 7 7 8 8 8 8 9 10 9 8 7 6 5 5 5 5 6 6 6 7 6 6 6 5 5 5 5 4 4 4 4 4 4 5 5 5 5 5 5 5 5 4 4 4 4 3 3 4 4 4 4 4 5 5 6
9 10 10 10 10 9 9 9 9 9 9 10 10 10 10 10 11 11 11 11 11 11 11 11 11 11 10 10 10 9 8 7 6 7 8 8 8 8 9 10 9 8 7 6 5 5 5 5 6 6 7 7 6 6 6 5 5 5 4 4 4 4 4 5 5 6 5 5 5 5 5 4 4 4 4 4 4 4 4 4 4 4 4 5 6 6
9 9 9 9 9 9 9 9 8 8 8 9 9 9 9 9 10 10 10 11 11 11 12 12 12 11 10 10 10 9 8 7 6 7 7 8 8 8 8 8 8 8 7 7 6 6 6 5 6 6 7 7 7 6 6 6 5 5 5 4 5 5 5 5 5 5 5 5 5 5 5 4 4 4 4 4 4 4 4 5 5 5 5 6 6 7
8 8 8 8 8 8 8 8 8 8 8 8 8 8 8 9 9 9 10 10 10 11 12 12 12 11 10 10 10 9 8 7 6 6 7 8 8 7 7 7 7 6 6 6 6 6 6 6 6 6 6 7 7 7 6 6 6 5 5 5 5 5 5 5 5 5 5 4 4 4 4 4 4 4 4 4 4 4 5 5 5 6 6 6 7 8
6 7 7 7 7 7 7 7 7 7 7 7 7 7 7 8 8 9 9 9 10 10 11 11 12 12 11 10 10 9 8 7 6 5 6 7 8 8 8 8 8 7 6 5 5 5 5 6 6 6 6 6 6 6 6 6 6 5 5 5 5 4 4 4 5 5 5 4 4 3 3 3 3 4 4 3 3 4 4 5 6 6 6 7 8 8
Wind_Direction
18 19 22 26 29 30 28 25 24 24 25 25 27 30 30 29 26 24 21 18 16 14 12 10 8 7 9 16 23 26 25 25 30 40 51 53 52 55 71 99 128 146 151 153 150 143 136 129 127 128 133 140 149 180 203 201 200 205 208 184 171 168 169 171 173 175 177 179 179 180 181 179 174 167 160 157 160 165 170 174 175 173 168 163 160 157
25 26 28 30 31 32 31 29 28 28 28 28 29 31 32 30 28 27 25 23 21 20 18 15 11 9 9 16 24 28 28 27 31 40 52 59 62 63 72 81 92 105 118 128 131 128 123 121 121 124 127 132 144 175 192 195 202 200 184 171 167 168 170 171 173 175 176 177 178 177 174 167 161 156 157 161 166 170 172 173 171 167 163 159 155 154
29 29 31 32 33 33 32 31 31 31 32 32 32 34 35 33 31 29 27 27 26 25 24 21 18 14 15 20 26 30 31 29 31 39 50 59 64 68 77 88 91 91 93 97 102 108 112 118 122 123 125 133 149 169 183 195 197 183 170 167 167 168 169 170 171 172 173 172 171 167 161 156 155 157 161 166 169 170 170 169 167 164 159 155 153 153
31 30 32 33 34 35 34 33 34 35 35 35 35 37 38 37 34 32 31 30 30 30 30 28 25 23 23 27 32 34 33 32 33 39 48 57 64 68 72 83 97 105 99 89 83 86 99 114 123 126 130 143 159 169 175 183 177 171 167 167 167 167 167 167 168 167 166 163 159 155 153 154 157 162 166 168 168 167 166 165 163 161 156 153 152 155
34 32 33 34 35 36 36 36 37 38 39 38 38 39 41 40 38 36 35 34 33 34 34 33 32 31 32 36 39 40 37 36 37 40 47 55 63 69 72 76 84 97 107 106 90 74 76 97 115 130 144 162 175 178 174 166 167 168 167 167 166 165 164 163 162 161 158 155 153 151 152 156 161 165 167 167 166 163 162 161 159 156 153 153 156 163
38 38 37 37 37 37 37 37 37 38 40 41 41 42 43 43 41 39 37 36 36 36 37 38 38 37 39 43 46 47 43 41 42 45 49 55 62 69 74 78 81 86 94 102 100 83 63 70 91 129 168 192 196 194 187 172 168 169 168 168 166 164 162 161 159 158 156 155 153 153 154 158 163 167 168 165 161 157 156 155 154 154 155 160 167 176
42 41 41 42 42 41 40 39 38 38 39 40 42 43 45 45 44 42 40 39 39 39 40 41 41 41 43 47 50 52 50 48 48 50 54 58 63 69 75 79 83 86 91 96 100 100 91 76 69 155 223 222 213 204 194 179 171 169 167 166 164 161 159 158 157 157 156 155 154 154 155 158 164 168 167 160 155 152 152 152 153 157 163 170 174 177
45 44 44 45 46 46 45 43 41 40 39 39 40 43 45 47 47 45 44 43 42 41 41 42 43 45 48 51 54 55 56 54 54 56 59 63 68 73 78 82 86 90 95 100 106 113 119 124 139 189 218 217 207 194 183 174 170 167 164 162 159 157 155 153 152 152 152 152 151 152 154 159 164 167 163 156 152 151 152 153 157 165 172 174 174 172
49 47 45 45 46 47 47 46 45 43 42 40 40 42 45 47 48 47 46 46 44 43 42 43 46 50 53 55 59 62 63 63 63 64 67 70 74 78 83 87 91 96 102 107 112 117 121 125 133 145 160 168 170 168 166 166 165 162 159 156 153 150 148 146 145 145 146 146 148 150 155 160 164 163 158 153 152 153 155 157 163 172 179 180 180 182
52 51 48 47 48 48 48 46 46 46 45 44 44 44 45 47 48 48 48 48 48 47 46 47 50 54 58 61 64 68 71 72 73 74 76 78 81 85 88 92 96 101 105 108 111 114 117 119 122 128 136 143 149 152 154 156 155 152 148 146 143 141 139 139 139 141 142 145 149 154 159 162 162 158 153 153 155 158 160 163 168 175 182 186 191 197
54 53 51 50 50 50 49 47 46 46 47 48 48 48 48 49 49 50 51 51 51 52 52 52 53 56 60 64 67 71 74 77 80 82 85 87 89 92 95 98 101 104 106 107 109 111 113 115 117 120 125 132 138 143 145 144 142 139 136 135 133 133 134 137 139 142 145 149 154 159 163 162 160 157 155 157 160 164 167 170 174 179 183 188 195 203
56 54 52 51 50 50 49 48 47 46 46 46 48 49 50 51 52 53 54 55 55 56 58 58 58 59 62 65 68 70 72 75 78 81 85 89 92 94 97 101 104 106 107 108 109 110 113 115 118 119 121 126 131 135 136 135 132 129 127 126 128 131 135 140 144 148 152 156 160 161 161 159 158 158 159 161 163 166 170 175 180 185 189 194 201 207
58 55 52 51 49 48 48 47 46 45 45 45 46 48 50 53 55 57 58 58 59 60 62 63 63 64 65 66 68 70 70 71 72 75 78 80 82 85 89 94 99 104 107 108 108 109 113 117 120 122 123 126 128 130 130 128 126 124 123 125 129 135 141 146 151 155 158 159 158 157 154 153 154 156 158 160 162 165 170 176 183 189 195 200 206 211
59 57 55 52 50 48 48 47 46 46 46 46 48 50 53 56 58 60 61 61 62 63 64 65 66 66 66 68 69 70 71 71 70 71 71 71 72 73 75 80 86 95 102 105 106 107 112 116 119 122 124 125 127 128 128 127 126 125 127 131 137 143 148 153 155 156 155 153 151 148 147 148 150 153 156 161 166 171 177 182 187 193 198 204 209 213
61 59 56 54 52 50 49 49 48 48 47 48 50 52 56 58 59 61 62 62 63 64 65 66 66 66 66 68 70 71 72 73 72 71 71 70 69 68 67 68 72 80 89 96 100 105 112 115 117 119 121 124 126 127 127 128 129 131 135 140 145 149 151 152 152 150 148 147 145 144 144 145 146 152 162 176 186 190 191 191 193 197 203 208 211 214
62 61 59 57 55 53 52 51 50 50 49 49 50 52 55 57 59 60 61 62 62 63 65 66 66 65 65 66 68 70 73 75 75 76 76 76 74 72 68 67 66 67 73 80 88 98 107 113 116 118 121 124 127 128 129 131 134 137 140 144 146 148 148 147 146 145 145 144 144 144 143 144 148 164 189 200 200 198 196 196 197 200 205 210 214 216
64 63 62 60 58 56 55 53 52 51 51 51 52 53 55 58 60 61 61 61 62 62 62 64 65 64 63 63 65 68 71 74 76 78 80 81 81 80 78 75 71 67 66 67 73 82 95 104 110 115 120 125 128 131 133 135 138 140 142 143 144 144 145 145 145 145 144 143 143 143 141 142 151 176 201 205 201 196 195 194 196 199 204 209 214 218
66 65 64 62 61 59 57 56 55 54 54 54 54 56 58 60 62 63 63 63 63 62 62 63 64 64 63 61 61 64 67 71 74 76 78 80 81 83 84 84 82 78 72 68 67 71 80 89 97 106 116 126 132 136 138 140 142 143 143 144 145 147 150 153 153 150 146 144 143 142 140 141 150 170 190 192 189 187 186 187 189 192 195 201 210 220
66 65 65 64 63 61 59 58 58 57 56 56 57 59 61 62 64 65 65 65 65 65 65 65 65 65 65 63 63 63 66 69 72 74 75 77 78 80 83 85 87 86 84 80 76 74 75 79 85 94 106 119 127 132 134 136 138 139 142 144 147 151 155 158 158 154 148 145 143 143 141 141 148 159 168 167 164 164 167 171 176 179 182 191 206 223
66 66 65 64 63 61 60 60 60 60 60 59 60 61 63 64 66 66 66 67 67 67 67 67 66 66 65 65 64 64 65 68 71 73 74 75 76 77 79 82 85 88 90 90 88 86 86 86 87 89 93 100 106 110 114 115 116 119 125 132 139 144 148 149 149 147 144 144 144 145 145 147 151 156 156 151 144 142 145 151 157 161 168 180 204 237
67 66 64 63 62 61 61 60 60 61 62 62 63 64 65 66 66 67 67 68 68 67 67 67 67 66 65 65 64 63 64 66 70 72 73 74 74 75 76 79 83 86 90 93 94 94 95 97 98 98 98 98 98 98 98 97 95 94 99 110 123 132 137 140 141 142 143 145 148 151 154 155 156 154 149 143 138 137 138 141 144 148 155 168 203 258
68 67 66 65 63 62 61 60 60 61 62 64 65 66 66 67 67 67 67 67 67 66 67 67 67 67 66 66 64 62 62 64 68 72 74 72 72 72 74 77 80 83 86 90 93 95 96 97 99 101 102 103 103 102 100 97 94 93 96 104 116 127 132 136 139 141 144 148 152 156 157 156 152 146 140 138 139 140 139 137 135 136 140 155 209 265
69 69 68 66 65 63 62 60 60 60 61 64 66 68 69 69 70 71 70 69 68 68 68 68 68 68 68 67 67 65 63 64 67 72 75 73 71 71 73 75 77 79 80 83 85 88 89 90 91 94 97 99 100 99 98 96 93 91 92 97 104 113 121 125 128 131 136 141 147 150 151 146 141 136 135 137 139 139 134 126 118 108 101 98 93 76
70 69 69 68 66 65 63 61 60 59 60 62 65 68 70 71 72 74 74 73 73 72 72 73 73 72 71 70 69 68 66 65 67 71 75 76 74 73 72 74 76 76 76 77 79 82 85 86 87 89 92 94 96 96 95 94 92 91 90 90 92 98 105 110 113 114 116 118 122 125 126 126 125 127 131 134 133 129 119 107 96 89 82 77 73 70
70 69 69 68 67 66 65 63 61 59 59 59 62 65 68 70 72 74 75 76 77 77 77 77 76 74 73 72 71 70 69 68 68 70 75 77 77 75 73 73 75 76 76 76 78 80 82 83 84 84 84 84 84 85 85 86 87 87 87 87 88 90 93 96 97 96 92 88 85 86 89 95 104 112 118 119 115 108 98 90 85 81 76 72 67 62
71 70 69 68 67 66 65 64 63 61 59 58 60 62 66 70 73 75 77 78 78 78 77 76 74 74 73 72 72 71 71 71 71 72 74 77 77 76 74 73 74 76 77 77 77 77 78 79 78 77 76 75 74 73 74 75 76 78 79 80 82 83 84 83 81 78 75 72 71 74 78 84 92 100 103 101 96 91 86 82 79 77 73 68 63 57
74 72 71 69 68 67 66 65 64 63 62 60 60 61 64 68 72 75 76 77 76 74 74 74 74 73 73 72 72 72 73 73 73 73 74 76 77 76 75 74 74 76 77 77 75 75 75 75 75 74 73 73 72 71 70 69 69 70 72 73 74 76 77 77 76 75 74 74 74 77 80 85 89 90 89 87 83 81 79 78 76 73 70 64 57 50
76 75 73 71 70 69 67 66 66 65 64 64 63 62 62 64 66 69 72 73 72 71 72 73 73 74 73 73 74 74 74 74 74 74 74 75 76 77 76 75 75 76 77 77 76 74 74 73 72 72 72 72 72 72 71 70 69 68 69 69 70 72 73 74 74 73 73 73 74 75 77 78 79 78 77 76 75 75 74 73 71 69 64 58 51 43
79 77 75 74 72 71 70 69 68 67 67 67 66 66 64 62 62 65 68 69 69 70 70 71 73 75 76 76 76 76 75 74 74 74 74 74 75 76 77 77 77 78 78 79 78 76 74 72 71 70 70 70 71 71 72 72 72 71 69 68 68 68 69 69 69 69 67 66 65 66 68 72 74 75 74 73 71 70 69 68 65 62 57 52 46 40
79 78 76 75 74 74 73 71 70 70 69 68 67 66 65 64 63 63 64 64 66 68 68 70 72 75 77 78 77 76 74 73 74 74 74 75 75 76 76 78 78 79 79 81 80 77 74 72 71 70 70 71 71 71 71 72 71 71 70 68 66 65 65 65 64 63 61 58 56 56 60 67 74 76 76 74 71 68 65 62 58 54 51 47 43 37
80 78 77 76 76 75 74 73 72 71 69 68 66 65 64 64 65 65 64 63 64 66 68 69 71 72 75 76 76 75 73 72 73 73 73 75 75 75 75 77 77 76 76 78 81 80 76 74 73 72 71 72 72 72 71 70 69 68 67 65 64 63 63 62 61 60 58 55 53 52 54 59 66 71 74 74 70 65 59 54 49 46 44 41 37 33
82 79 78 77 76 76 75 74 72 71 69 67 66 64 64 64 65 66 66 65 64 65 68 70 71 71 71 73 74 75 74 73 72 71 71 74 75 74 73 74 75 73 71 72 77 81 81 80 78 76 74 73 73 72 72 70 68 66 64 62 61 61 61 61 60 59 57 55 53 51 51 52 54 57 61 62 61 57 51 46 41 38 36 32 29 25
81 79 78 77 77 76 75 73 71 69 68 66 65 65 64 65 65 65 66 65 65 65 67 69 70 70 70 71 74 76 76 76 74 73 71 71 72 73 71 72 72 72 71 71 73 76 79 80 80 78 75 73 71 70 69 68 67 65 62 60 58 57 57 57 57 57 56 55 53 50 48 47 46 45 45 45 44 43 40 36 33 30 27 24 20 16
79 78 77 77 77 76 74 71 69 67 66 65 65 65 64 64 64 64 65 65 65 65 66 67 69 69 69 71 73 75 76 76 76 76 73 71 70 70 69 69 69 70 71 72 72 73 75 76 76 75 73 70 66 64 62 61 60 58 54 52 52 52 50 50 50 51 51 50 49 47 44 42 39 37 34 32 29 28 26 23 21 19 18 15 13 10
78 76 75 75 74 73 72 69 67 64 63 64 64 64 64 64 63 63 63 63 64 64 65 66 68 68 69 70 72 73 74 74 75 75 74 72 70 68 67 66 65 65 66 67 68 70 73 72 71 70 69 68 63 58 56 53 52 51 48 44 43 43 43 43 43 43 43 42 42 40 38 36 33 30 27 24 21 18 15 12 10 8 8 7 7 7
75 74 73 72 71 70 69 67 65 62 61 61 62 62 62 62 61 61 61 61 62 63 63 65 67 68 69 70 71 72 73 73 72 72 73 72 70 67 64 64 64 63 60 59 59 60 64 66 67 65 64 63 60 56 51 48 47 47 46 42 39 36 34 34 35 36 35 33 32 31 30 28 26 23 19 17 15 12 10 8 5 3 2 3 5 6
69 68 69 68 68 67 66 65 63 61 60 59 59 59 59 59 59 58 58 58 58 59 60 63 65 67 69 70 71 72 73 73 72 72 72 71 70 67 64 64 65 64 60 58 55 54 54 55 58 59 56 53 51 49 46 44 41 40 39 36 35 32 29 24 26 30 29 26 24 22 21 20 18 16 13 10 8 7 6 6 4 3 2 3 5 6
64 62 62 62 62 63 63 62 61 59 58 58 57 57 56 56 56 55 55 55 55 55 56 58 61 64 66 68 69 70 72 72 73 72 72 71 70 68 65 65 65 65 63 61 59 56 51 47 46 47 45 42 40 38 36 34 33 30 24 20 21 22 21 17 16 18 21 21 19 16 13 11 10 8 6 4 2 2 2 2 2 2 2 3 4 6
62 60 59 58 58 57 58 59 58 57 56 56 55 54 53 52 51 52 53 52 52 52 53 54 57 59 62 63 65 67 69 70 71 72 72 72 70 68 66 65 65 64 62 61 59 57 53 49 45 43 41 40 38 33 27 24 23 19 11 6 5 8 10 7 7 8 9 11 13 13 10 6 4 3 2 360 358 358 359 359 358 359 2 4 5 4
59 58 56 56 55 54 53 53 53 52 53 53 52 51 50 49 49 48 48 48 48 48 48 50 53 56 57 59 60 62 63 65 67 68 70 70 69 68 66 66 65 64 62 61 58 56 53 50 48 46 44 42 41 39 32 24 21 17 12 14 14 10 3 1 1 0 360 2 6 9 10 6 3 0 358 356 355 355 355 355 355 357 0 4 4 3
53 53 53 53 52 51 51 51 50 49 49 49 48 47 47 46 47 47 46 45 44 43 43 45 48 52 54 53 53 54 56 57 59 62 64 66 66 66 64 63 62 62 62 61 59 56 52 50 50 49 46 43 40 37 34 29 27 27 25 24 15 4 358 1 2 1 360 360 1 6 9 8 4 359 355 353 351 351 353 353 354 357 0 3 2 360
48 48 48 48 48 48 48 48 48 47 46 44 42 40 40 41 41 42 43 44 44 43 42 43 45 49 56 57 53 47 45 45 47 50 52 54 56 56 56 56 57 57 57 58 58 56 54 52 51 51 47 43 39 35 32 29 29 32 35 30 15 6 7 11 10 6 7 4 2 3 5 6 4 360 353 350 349 349 353 354 355 355 358 0 358 355
46 46 46 45 44 44 44 44 44 44 43 39 36 34 35 37 38 38 39 40 40 40 40 41 41 40 40 45 50 50 42 36 35 37 39 40 40 40 40 43 46 49 50 50 52 54 54 53 53 52 49 44 39 35 32 27 27 31 30 24 18 16 23 21 13 9 10 7 2 1 1 2 360 355 350 347 348 351 355 357 357 356 354 354 352 351
46 46 45 43 42 42 41 41 41 40 39 38 34 32 31 33 34 35 35 35 35 36 37 37 37 36 35 33 34 39 46 36 30 29 30 32 31 29 28 30 33 38 41 43 45 48 49 52 52 51 49 47 42 37 33 28 27 29 28 21 19 23 26 19 17 20 18 8 3 2 2 2 360 356 352 350 350 352 354 355 354 354 353 350 348 345
45 45 45 43 43 42 42 40 37 36 36 34 33 31 30 30 31 31 31 31 31 32 34 34 33 33 36 34 31 33 38 37 33 30 28 28 29 28 27 27 27 29 32 37 40 42 44 47 49 48 47 47 46 43 39 32 29 29 30 23 19 16 12 9 18 28 24 12 7 6 6 6 5 2 358 357 356 353 350 347 346 346 346 343 341 341
42 42 42 42 41 41 39 37 35 33 32 31 30 30 29 28 28 27 27 27 27 29 29 29 29 30 32 32 31 33 37 39 37 32 28 28 27 26 27 27 26 26 29 32 35 37 39 41 43 44 44 45 46 47 42 37 35 34 33 26 21 15 8 9 16 22 20 14 8 4 5 9 9 5 360 356 356 353 344 340 339 340 339 337 336 337
38 37 36 35 35 34 34 33 32 31 28 26 26 26 26 25 24 23 22 22 23 24 25 25 26 27 28 29 30 32 36 40 40 36 29 27 25 23 24 25 25 26 27 29 31 32 35 37 39 40 40 40 42 43 42 40 39 39 36 29 22 20 21 20 21 20 17 12 6 2 3 7 8 3 353 349 348 347 341 338 338 337 335 334 335 336
33 31 30 28 27 27 26 26 26 26 25 23 22 22 22 21 20 20 19 18 18 19 20 21 21 22 23 25 26 26 29 32 36 36 31 28 25 23 22 22 24 24 26 26 27 30 33 36 39 38 35 34 35 37 39 41 41 40 36 31 24 23 28 26 26 25 20 13 6 3 3 4 1 354 348 342 337 338 343 339 339 339 337 337 338 339
29 27 25 22 21 19 18 17 17 17 19 20 20 18 17 16 16 16 15 14 13 13 13 14 15 15 17 19 20 21 22 24 27 28 27 23 22 23 25 24 24 25 26 26 26 27 27 32 38 39 35 32 32 35 38 39 40 38 38 35 30 29 32 32 33 30 26 17 11 7 4 360 353 346 344 337 330 331 342 339 339 341 343 341 342 343
25 22 20 18 16 14 12 11 10 10 11 13 15 14 13 11 10 10 10 10 9 9 8 8 7 8 9 10 12 15 16 17 20 21 20 14 13 15 18 20 23 28 31 31 34 35 30 29 31 34 35 32 31 32 35 36 36 36 39 40 37 33 34 36 38 36 31 24 16 9 3 353 346 343 345 339 331 330 335 342 343 344 349 346 346 346
20 17 15 13 10 8 6 5 4 5 5 6 7 8 7 7 6 5 5 5 4 4 4 3 3 3 3 2 4 5 6 7 10 13 12 5 4 6 6 6 7 11 17 22 29 37 41 39 34 29 25 28 31 32 29 32 32 32 36 39 37 36 36 37 39 37 33 27 20 11 357 344 342 347 351 347 339 336 339 352 353 351 353 351 351 350
Height
1427 1425 1424 1422 1420 1418 1416 1415 1412 1410 1407 1405 1403 1400 1399 1397 1395 1394 1392 1390 1388 1386 1385 1383 1381 1380 1378 1376 1374 1372 1370 1368 1365 1363 1361 1361 1360 1360 1359 1358 1357 1358 1358 1359 1359 1360 1361 1362 1364 1366 1369 1371 1372 1374 1375 1378 1381 1384 1388 1390 1393 1394 1394 1396 1399 1402 1405 1408 1411 1415 1418 1421 1425 1429 1432 1435 1439 1441 1443 1444 1445 1447 1449 1451 1453 1455
1426 1425 1424 1422 1420 1418 1416 1415 1413 1410 1408 1406 1404 1401 1400 1398 1396 1394 1392 1390 1389 1387 1385 1383 1382 1380 1379 1377 1375 1373 1371 1370 1367 1365 1363 1362 1361 1361 1360 1360 1359 1359 1360 1360 1361 1361 1362 1364 1365 1367 1369 1371 1373 1375 1377 1380 1383 1386 1389 1391 1392 1393 1394 1396 1399 1402 1405 1409 1413 1416 1420 1424 1427 1431 1434 1437 1439 1440 1441 1443 1445 1447 1449 1451 1453 1455
1426 1425 1423 1422 1420 1418 1417 1415 1414 1412 1410 1407 1405 1403 1400 1399 1396 1395 1393 1391 1390 1388 1386 1384 1383 1381 1380 1378 1377 1375 1373 1371 1369 1367 1365 1364 1363 1362 1362 1362 1362 1362 1362 1362 1363 1363 1365 1366 1367 1368 1369 1371 1374 1375 1378 1381 1385 1387 1389 1390 1391 1392 1395 1397 1400 1403 1407 1411 1415 1419 1422 1425 1429 1431 1433 1435 1437 1439 1441 1443 1445 1447 1450 1452 1454 1456
1426 1425 1424 1422 1420 1419 1418 1416 1415 1413 1411 1409 1406 1404 1402 1400 1398 1396 1395 1393 1391 1389 1387 1385 1384 1382 1381 1379 1378 1376 1375 1373 1371 1369 1367 1365 1365 1364 1364 1363 1363 1364 1365 1365 1365 1366 1367 1368 1369 1370 1370 1372 1374 1376 1378 1382 1386 1388 1389 1390 1392 1394 1396 1399 1403 1406 1410 1414 1417 1420 1423 1426 1428 1430 1433 1436 1438 1440 1442 1444 1446 1448 1451 1453 1455 1457
1427 1426 1424 1423 1421 1420 1419 1417 1416 1414 1412 1410 1408 1405 1403 1401 1400 1398 1396 1395 1392 1390 1388 1387 1385 1384 1382 1381 1380 1378 1377 1375 1373 1371 1370 1368 1367 1366 1365 1365 1365 1365 1366 1367 1368 1368 1369 1370 1370 1371 1372 1374 1374 1376 1379 1383 1387 1390 1391 1393 1395 1398 1400 1403 1406 1409 1412 1415 1418 1421 1424 1426 1429 1432 1435 1437 1439 1440 1442 1444 1447 1450 1452 1454 1456 1458
1428 1427 1425 1424 1422 1421 1419 1418 1417 1415 1413 1411 1409 1407 1404 1402 1401 1399 1397 1395 1394 1392 1390 1388 1387 1386 1384 1383 1381 1380 1379 1377 1375 1374 1372 1371 1370 1369 1368 1367 1367 1366 1367 1368 1369 1370 1370 1371 1372 1373 1374 1375 1375 1376 1379 1385 1389 1391 1393 1396 1399 1401 1403 1405 1408 1410 1413 1416 1419 1422 1425 1428 1431 1434 1437 1439 1440 1441 1443 1446 1449 1451 1453 1455 1457 1458
1429 1428 1426 1425 1424 1422 1420 1419 1417 1415 1414 1412 1410 1408 1406 1404 1402 1401 1399 1397 1396 1394 1392 1390 1389 1388 1386 1385 1383 1382 1380 1379 1377 1376 1375 1373 1372 1371 1370 1370 1369 1369 1369 1369 1369 1370 1372 1373 1374 1375 1376 1376 1375 1376 1380 1385 1390 1393 1395 1398 1400 1402 1404 1406 1408 1410 1414 1417 1421 1424 1427 1430 1433 1436 1438 1440 1441 1443 1445 1447 1450 1452 1454 1456 1457 1459
1429 1428 1427 1425 1424 1423 1421 1420 1418 1416 1415 1413 1411 1409 1407 1405 1404 1402 1401 1399 1398 1396 1394 1393 1391 1389 1388 1386 1385 1383 1382 1380 1379 1378 1377 1376 1375 1374 1374 1373 1372 1371 1371 1371 1371 1372 1374 1376 1377 1378 1378 1377 1376 1377 1380 1386 1390 1393 1395 1397 1400 1402 1404 1407 1410 1413 1417 1420 1424 1427 1430 1432 1435 1438 1440 1441 1442 1444 1446 1449 1451 1453 1455 1456 1457 1458
1430 1429 1427 1426 1425 1423 1422 1420 1419 1417 1416 1414 1412 1410 1408 1406 1405 1404 1402 1400 1399 1398 1396 1395 1393 1391 1390 1389 1387 1385 1384 1383 1381 1380 1380 1379 1378 1377 1377 1376 1375 1375 1375 1375 1375 1375 1376 1378 1380 1381 1381 1380 1379 1380 1383 1387 1390 1393 1395 1397 1400 1404 1407 1410 1414 1417 1420 1423 1426 1429 1431 1434 1437 1439 1440 1442 1444 1446 1448 1450 1452 1454 1455 1455 1456 1457
1430 1430 1428 1427 1426 1424 1423 1421 1420 1419 1417 1416 1415 1413 1410 1408 1406 1405 1403 1402 1401 1400 1398 1397 1396 1395 1393 1391 1390 1388 1387 1385 1385 1384 1383 1382 1381 1381 1380 1380 1379 1379 1379 1379 1379 1379 1379 1380 1381 1383 1384 1383 1383 1384 1386 1389 1391 1394 1396 1400 1403 1407 1411 1414 1417 1420 1423 1425 1428 1430 1433 1436 1438 1440 1441 1443 1445 1448 1450 1452 1453 1455 1455 1456 1457 1458
1431 1430 1429 1428 1427 1425 1424 1423 1421 1420 1419 1418 1416 1414 1412 1410 1408 1407 1405 1404 1403 1402 1401 1400 1399 1397 1396 1395 1393 1392 1390 1389 1387 1386 1385 1385 1384 1384 1383 1383 1383 1383 1382 1383 1384 1384 1385 1384 1385 1386 1387 1389 1389 1390 1391 1393 1395 1398 1401 1405 1408 1411 1415 1417 1420 1422 1425 1427 1430 1432 1435 1437 1439 1441 1443 1445 1447 1450 1451 1453 1454 1455 1457 1458 1459 1459
1432 1431 1430 1429 1427 1426 1425 1424 1422 1421 1419 1417 1415 1414 1412 1411 1410 1410 1408 1407 1406 1405 1404 1403 1402 1400 1400 1398 1397 1395 1394 1392 1391 1390 1388 1387 1387 1386 1386 1386 1386 1386 1386 1387 1388 1389 1390 1390 1390 1391 1391 1393 1395 1397 1399 1400 1402 1404 1407 1410 1413 1415 1418 1420 1422 1425 1427 1429 1431 1434 1436 1438 1440 1442 1445 1447 1449 1450 1452 1454 1455 1456 1458 1459 1460 1460
1433 1432 1430 1429 1428 1426 1425 1423 1422 1420 1419 1417 1416 1416 1415 1415 1414 1413 1411 1410 1409 1408 1408 1406 1405 1404 1403 1401 1400 1399 1398 1396 1395 1394 1392 1391 1390 1390 1390 1389 1389 1390 1390 1390 1391 1392 1394 1395 1396 1397 1397 1396 1397 1400 1402 1404 1407 1409 1411 1414 1416 1419 1421 1423 1425 1427 1430 1432 1434 1436 1438 1440 1442 1444 1446 1448 1449 1451 1453 1454 1456 1457 1458 1459 1460 1460
1434 1433 1431 1430 1429 1427 1425 1424 1423 1422 1421 1420 1420 1420 1420 1418 1417 1415 1414 1413 1412 1411 1410 1410 1408 1407 1406 1404 1403 1402 1401 1400 1399 1398 1396 1395 1395 1395 1395 1394 1394 1393 1393 1393 1394 1396 1398 1399 1400 1402 1403 1403 1402 1403 1405 1407 1410 1412 1415 1417 1420 1422 1424 1426 1428 1431 1433 1435 1437 1438 1440 1442 1444 1446 1448 1449 1450 1452 1453 1455 1456 1457 1458 1458 1459 1460
1435 1433 1432 1431 1430 1429 1427 1426 1425 1425 1424 1424 1423 1423 1422 1420 1419 1417 1416 1415 1415 1414 1413 1412 1411 1410 1409 1408 1406 1405 1404 1403 1402 1401 1401 1400 1400 1401 1401 1400 1400 1399 1397 1397 1398 1400 1401 1402 1404 1406 1408 1409 1410 1409 1410 1411 1413 1415 1417 1420 1422 1425 1427 1429 1431 1433 1435 1436 1438 1440 1441 1444 1446 1448 1449 1450 1451 1452 1453 1454 1455 1456 1457 1458 1459 1460
1436 1435 1433 1432 1432 1431 1430 1429 1428 1427 1426 1426 1425 1424 1423 1421 1420 1420 1419 1418 1417 1416 1415 1414 1413 1412 1412 1411 1410 1409 1407 1406 1405 1405 1404 1404 1404 1405 1405 1405 1405 1404 1404 1403 1403 1404 1405 1406 1408 1410 1412 1414 1415 1415 1415 1415 1417 1419 1421 1423 1425 1428 1430 1432 1433 1435 1436 1437 1439 1441 1443 1445 1447 1448 1450 1450 1451 1452 1453 1454 1455 1456 1457 1458 1459 1460
1437 1436 1435 1434 1434 1433 1432 1431 1430 1430 1429 1428 1427 1426 1425 1424 1423 1422 1421 1420 1419 1418 1417 1415 1415 1414 1415 1415 1414 1412 1411 1410 1409 1408 1407 1407 1407 1407 1408 1408 1408 1409 1410 1410 1411 1411 1410 1410 1412 1414 1416 1418 1419 1420 1420 1420 1421 1423 1425 1427 1429 1431 1433 1435 1436 1437 1438 1439 1441 1442 1444 1445 1447 1449 1450 1450 1451 1452 1453 1455 1455 1457 1458 1458 1459 1460
1439 1438 1437 1436 1435 1435 1434 1433 1432 1431 1430 1429 1429 1428 1427 1426 1425 1424 1423 1422 1421 1420 1420 1418 1418 1418 1418 1419 1419 1417 1416 1415 1414 1413 1411 1410 1410 1410 1410 1410 1410 1411 1413 1414 1416 1418 1418 1417 1417 1418 1420 1422 1423 1424 1424 1425 1426 1427 1428 1430 1431 1433 1435 1437 1438 1439 1440 1441 1443 1444 1445 1446 1448 1449 1450 1450 1451 1453 1454 1455 1456 1457 1458 1459 1459 1460
1440 1439 1438 1438 1437 1437 1436 1435 1434 1433 1432 1431 1431 1430 1429 1428 1427 1426 1425 1425 1424 1423 1423 1422 1422 1422 1422 1423 1423 1422 1421 1420 1419 1417 1415 1415 1415 1415 1414 1414 1414 1414 1415 1417 1420 1422 1423 1424 1424 1425 1425 1426 1426 1427 1428 1429 1430 1431 1432 1432 1433 1435 1436 1438 1439 1441 1442 1443 1444 1445 1446 1447 1448 1450 1450 1452 1453 1454 1455 1456 1456 1457 1458 1459 1459 1460
1441 1441 1440 1440 1439 1439 1438 1437 1436 1435 1434 1434 1433 1432 1431 1430 1429 1428 1428 1427 1426 1426 1425 1425 1425 1425 1425 1426 1427 1426 1425 1425 1423 1421 1420 1420 1420 1420 1419 1419 1418 1418 1419 1420 1422 1425 1426 1427 1429 1430 1431 1431 1432 1433 1434 1435 1437 1438 1438 1439 1439 1440 1440 1440 1441 1442 1443 1444 1445 1446 1447 1448 1450 1451 1452 1453 1454 1455 1455 1456 1457 1457 1458 1458 1459 1459
1443 1442 1442 1441 1441 1440 1440 1439 1438 1437 1436 1435 1435 1433 1433 1432 1431 1430 1430 1430 1429 1428 1428 1427 1427 1428 1429 1429 1429 1429 1429 1428 1426 1425 1424 1424 1424 1424 1424 1424 1423 1423 1423 1424 1426 1427 1429 1430 1431 1432 1434 1435 1437 1438 1438 1439 1440 1441 1442 1443 1444 1444 1444 1444 1444 1445 1445 1445 1446 1447 1448 1450 1450 1451 1452 1453 1454 1455 1455 1456 1456 1457 1457 1458 1458 1459
1444 1444 1444 1443 1443 1442 1442 1441 1440 1440 1439 1437 1436 1435 1434 1433 1433 1432 1432 1432 1431 1430 1430 1430 1430 1431 1431 1431 1431 1431 1431 1431 1430 1429 1428 1427 1427 1428 1428 1428 1428 1428 1427 1428 1430 1431 1432 1432 1433 1434 1436 1438 1439 1440 1440 1441 1442 1443 1444 1444 1445 1445 1446 1446 1446 1447 1447 1448 1448 1449 1450 1450 1451 1452 1453 1454 1455 1455 1455 1455 1456 1457 1457 1457 1458 1458
1446 1445 1445 1445 1444 1444 1443 1443 1442 1442 1441 1440 1438 1437 1436 1435 1435 1435 1434 1434 1433 1433 1433 1433 1433 1433 1433 1433 1433 1433 1433 1433 1432 1431 1430 1430 1430 1432 1432 1432 1432 1431 1431 1432 1433 1434 1435 1435 1436 1437 1438 1439 1440 1441 1442 1443 1444 1445 1445 1446 1446 1447 1447 1448 1448 1449 1449 1450 1450 1451 1452 1452 1452 1453 1454 1454 1455 1455 1455 1455 1456 1456 1457 1457 1457 1458
1447 1447 1446 1446 1445 1445 1445 1445 1444 1444 1443 1441 1440 1439 1438 1437 1437 1437 1436 1436 1436 1435 1435 1435 1435 1435 1434 1434 1434 1434 1434 1435 1435 1434 1432 1432 1433 1435 1435 1435 1435 1434 1435 1436 1437 1437 1438 1438 1439 1439 1440 1440 1441 1442 1443 1444 1445 1445 1446 1447 1448 1448 1449 1449 1450 1450 1451 1451 1452 1453 1453 1453 1453 1454 1454 1454 1455 1455 1455 1455 1456 1456 1457 1457 1457 1458
1449 1448 1448 1447 1447 1447 1446 1446 1446 1445 1445 1444 1442 1441 1440 1440 1439 1439 1438 1438 1438 1438 1438 1437 1436 1435 1435 1435 1435 1435 1435 1436 1436 1435 1434 1434 1435 1436 1437 1437 1437 1437 1438 1439 1440 1440 1440 1440 1441 1442 1442 1442 1443 1444 1445 1445 1446 1446 1447 1448 1448 1449 1449 1450 1450 1451 1451 1452 1452 1453 1453 1454 1454 1454 1454 1455 1455 1455 1455 1455 1456 1456 1457 1457 1458 1458
1450 1449 1449 1449 1448 1448 1448 1447 1447 1446 1446 1445 1444 1443 1442 1442 1442 1441 1440 1440 1440 1440 1439 1438 1437 1437 1437 1437 1436 1436 1437 1437 1438 1438 1437 1437 1437 1438 1439 1440 1440 1440 1440 1441 1442 1442 1442 1443 1443 1444 1444 1444 1445 1445 1446 1446 1447 1448 1448 1449 1449 1450 1450 1450 1451 1451 1452 1452 1453 1453 1454 1454 1454 1455 1455 1455 1455 1455 1455 1455 1456 1457 1457 1458 1458 1459
1451 1450 1450 1450 1450 1449 1449 1449 1448 1448 1447 1447 1446 1445 1445 1445 1444 1443 1441 1441 1441 1441 1440 1439 1438 1438 1438 1438 1438 1439 1439 1439 1439 1440 1440 1439 1439 1440 1441 1442 1442 1442 1442 1443 1443 1444 1444 1444 1445 1445 1445 1446 1446 1447 1448 1448 1449 1449 1450 1450 1450 1451 1451 1451 1452 1452 1453 1453 1453 1454 1454 1455 1455 1455 1455 1455 1455 1455 1456 1456 1457 1457 1458 1458 1459 1459
1452 1451 1451 1451 1451 1450 1450 1450 1449 1449 1448 1448 1448 1448 1448 1448 1446 1444 1443 1443 1443 1442 1441 1440 1440 1440 1440 1440 1440 1441 1441 1441 1441 1441 1442 1441 1441 1442 1443 1444 1444 1444 1444 1444 1445 1445 1446 1446 1446 1446 1447 1447 1448 1449 1449 1450 1450 1451 1451 1451 1452 1452 1452 1453 1453 1453 1454 1454 1454 1455 1455 1455 1455 1455 1455 1456 1456 1456 1456 1457 1458 1458 1459 1459 1459 1459
1453 1452 1452 1452 1452 1451 1451 1451 1450 1450 1450 1450 1450 1450 1450 1449 1447 1446 1445 1445 1444 1444 1443 1442 1442 1442 1442 1442 1443 1443 1442 1443 1443 1443 1444 1443 1443 1444 1445 1445 1446 1446 1446 1446 1446 1447 1447 1447 1448 1448 1449 1449 1450 1450 1450 1451 1452 1452 1452 1453 1453 1453 1454 1454 1454 1454 1455 1455 1455 1455 1455 1456 1456 1456 1456 1456 1457 1457 1457 1458 1458 1459 1459 1459 1459 1459
1454 1453 1453 1453 1453 1452 1452 1452 1452 1451 1451 1451 1451 1450 1450 1449 1448 1447 1447 1447 1446 1445 1445 1444 1444 1444 1444 1444 1444 1444 1444 1444 1445 1445 1445 1445 1445 1445 1446 1447 1447 1448 1447 1447 1447 1448 1448 1449 1450 1450 1450 1451 1451 1452 1452 1452 1453 1453 1453 1454 1454 1454 1455 1455 1455 1455 1455 1456 1456 1456 1456 1456 1456 1457 1457 1457 1457 1458 1458 1458 1459 1459 1459 1459 1459 1459
1454 1454 1454 1454 1454 1453 1453 1453 1453 1452 1452 1452 1452 1451 1450 1450 1449 1449 1449 1449 1448 1447 1446 1446 1446 1446 1446 1445 1445 1444 1445 1446 1446 1447 1447 1447 1447 1447 1448 1448 1449 1449 1449 1449 1448 1449 1450 1450 1451 1451 1452 1452 1453 1453 1453 1454 1454 1454 1454 1455 1455 1455 1455 1455 1456 1456 1456 1456 1457 1457 1457 1457 1457 1457 1458 1458 1458 1458 1459 1459 1459 1459 1459 1459 1459 1459
1455 1455 1455 1455 1454 1454 1454 1454 1454 1453 1453 1453 1452 1452 1451 1450 1450 1450 1450 1450 1449 1449 1448 1448 1448 1448 1447 1446 1446 1446 1447 1448 1448 1448 1448 1448 1448 1449 1449 1449 1450 1450 1450 1450 1450 1450 1450 1451 1452 1453 1453 1453 1454 1454 1454 1454 1455 1455 1455 1455 1456 1456 1456 1456 1456 1457 1457 1457 1457 1457 1458 1458 1458 1458 1458 1458 1459 1459 1459 1459 1459 1459 1459 1459 1459 1459
1456 1456 1455 1455 1455 1455 1455 1455 1454 1454 1454 1453 1453 1452 1452 1452 1451 1451 1451 1451 1450 1450 1450 1450 1449 1449 1449 1448 1448 1448 1449 1449 1449 1450 1450 1450 1450 1450 1450 1450 1450 1451 1451 1451 1451 1451 1451 1452 1453 1453 1454 1454 1454 1455 1455 1455 1455 1455 1456 1456 1456 1456 1456 1457 1457 1457 1457 1457 1458 1458 1458 1458 1458 1458 1459 1459 1459 1459 1459 1459 1459 1459 1459 1459 1459 1459
1456 1456 1456 1456 1456 1456 1455 1455 1455 1455 1455 1454 1454 1453 1453 1453 1452 1452 1452 1452 1452 1451 1451 1451 1451 1450 1450 1450 1450 1450 1450 1450 1450 1451 1451 1451 1451 1451 1452 1452 1452 1452 1452 1452 1452 1452 1453 1453 1453 1454 1454 1455 1455 1455 1455 1455 1456 1456 1456 1456 1456 1457 1457 1457 1457 1457 1457 1458 1458 1458 1458 1458 1458 1459 1459 1459 1459 1459 1459 1460 1460 1460 1460 1460 1460 1460
1457 1457 1457 1457 1457 1456 1456 1456 1456 1455 1455 1455 1455 1454 1454 1454 1453 1453 1453 1453 1453 1453 1452 1452 1452 1452 1452 1452 1451 1451 1451 1452 1452 1452 1452 1452 1452 1453 1453 1453 1453 1453 1453 1453 1453 1453 1454 1454 1454 1455 1455 1455 1455 1456 1456 1456 1456 1456 1457 1457 1457 1457 1457 1457 1457 1458 1458 1458 1458 1458 1458 1459 1459 1459 1459 1459 1459 1460 1460 1460 1460 1460 1460 1460 1460 1460
1458 1458 1458 1457 1457 1457 1457 1457 1456 1456 1456 1456 1455 1455 1455 1455 1454 1454 1454 1454 1454 1454 1454 1453 1453 1453 1453 1453 1453 1453 1453 1453 1453 1453 1453 1453 1454 1454 1454 1454 1454 1454 1454 1454 1454 1455 1455 1455 1455 1455 1456 1456 1456 1456 1456 1457 1457 1457 1457 1457 1457 1457 1458 1458 1458 1458 1458 1458 1458 1459 1459 1459 1459 1459 1459 1459 1460 1460 1460 1460 1460 1460 1460 1460 1460 1460
1458 1458 1458 1458 1458 1458 1458 1457 1457 1457 1457 1456 1456 1456 1456 1455 1455 1455 1455 1455 1455 1455 1455 1454 1454 1454 1454 1454 1454 1454 1454 1454 1455 1455 1454 1454 1455 1455 1455 1455 1455 1455 1455 1455 1455 1455 1455 1455 1456 1456 1456 1456 1457 1457 1457 1457 1457 1457 1458 1458 1458 1458 1458 1458 1458 1458 1459 1459 1459 1459 1459 1459 1459 1459 1460 1460 1460 1460 1460 1460 1460 1460 1460 1460 1460 1460
1459 1459 1459 1459 1458 1458 1458 1458 1458 1458 1457 1457 1457 1457 1457 1456 1456 1456 1456 1455 1455 1455 1455 1455 1455 1455 1455 1455 1455 1455 1455 1455 1455 1455 1455 1455 1455 1455 1455 1455 1455 1456 1456 1456 1456 1456 1456 1456 1456 1457 1457 1457 1457 1457 1458 1458 1458 1458 1458 1458 1458 1458 1458 1458 1459 1459 1459 1459 1459 1459 1459 1460 1460 1460 1460 1460 1460 1460 1460 1460 1460 1460 1460 1460 1460 1460
1459 1459 1459 1459 1459 1459 1459 1459 1458 1458 1458 1458 1458 1458 1457 1457 1457 1457 1457 1456 1456 1456 1456 1456 1456 1456 1456 1456 1456 1456 1456 1456 1456 1456 1456 1456 1456 1456 1456 1456 1456 1456 1456 1456 1456 1457 1457 1457 1457 1457 1457 1457 1457 1458 1458 1458 1458 1458 1458 1459 1459 1459 1459 1459 1459 1459 1459 1459 1459 1459 1460 1460 1460 1460 1460 1460 1460 1460 1460 1460 1460 1460 1460 1460 1460 1460
1460 1459 1459 1459 1459 1459 1459 1459 1459 1459 1459 1459 1459 1459 1458 1458 1458 1458 1458 1457 1457 1457 1457 1457 1457 1456 1456 1456 1456 1457 1457 1457 1457 1457 1457 1457 1457 1457 1457 1457 1457 1457 1457 1457 1457 1457 1457 1457 1457 1457 1457 1458 1458 1458 1458 1458 1459 1459 1459 1459 1459 1459 1459 1459 1459 1459 1459 1459 1459 1459 1460 1460 1460 1460 1460 1460 1460 1460 1460 1460 1460 1460 1460 1460 1460 1460
1460 1459 1459 1459 1460 1460 1460 1460 1459 1459 1459 1459 1459 1459 1459 1459 1459 1459 1458 1458 1458 1458 1458 1457 1457 1457 1457 1457 1457 1457 1457 1457 1457 1457 1457 1457 1457 1458 1458 1457 1457 1457 1458 1458 1458 1458 1458 1458 1458 1458 1458 1458 1458 1458 1458 1459 1459 1459 1459 1459 1459 1459 1459 1459 1459 1459 1459 1459 1459 1460 1460 1460 1460 1460 1460 1460 1460 1460 1460 1460 1460 1460 1461 1461 1461 1461
1459 1459 1459 1459 1459 1459 1459 1459 1459 1459 1459 1459 1459 1460 1460 1460 1459 1459 1459 1459 1459 1459 1458 1458 1458 1458 1458 1458 1458 1458 1458 1458 1458 1458 1458 1458 1458 1458 1458 1458 1458 1458 1458 1458 1458 1458 1458 1458 1458 1458 1458 1458 1458 1458 1458 1459 1459 1459 1459 1459 1459 1459 1459 1459 1459 1459 1459 1459 1459 1460 1460 1460 1460 1460 1460 1460 1460 1460 1460 1460 1460 1461 1461 1461 1461 1461
1459 1459 1459 1459 1459 1459 1459 1459 1459 1459 1459 1460 1460 1460 1460 1460 1460 1460 1460 1459 1459 1459 1459 1459 1459 1459 1458 1458 1458 1458 1458 1458 1458 1458 1458 1458 1458 1458 1458 1458 1458 1458 1458 1458 1458 1458 1458 1458 1458 1458 1459 1459 1459 1459 1459 1459 1459 1459 1459 1459 1459 1459 1459 1459 1459 1459 1459 1460 1460 1460 1460 1460 1460 1460 1460 1460 1460 1460 1460 1460 1461 1461 1461 1461 1461 1461
1459 1459 1459 1459 1459 1459 1459 1459 1459 1460 1460 1460 1460 1460 1460 1460 1460 1460 1460 1460 1460 1460 1460 1460 1459 1459 1459 1459 1459 1459 1458 1458 1458 1458 1458 1458 1458 1459 1459 1458 1459 1459 1459 1459 1458 1458 1459 1459 1459 1459 1459 1459 1459 1459 1459 1459 1459 1459 1459 1459 1459 1459 1459 1459 1459 1459 1460 1460 1460 1460 1460 1460 1460 1460 1460 1460 1460 1460 1460 1460 1460 1461 1461 1461 1461 1460
1459 1459 1459 1459 1459 1459 1459 1460 1460 1460 1460 1460 1460 1460 1460 1460 1460 1460 1460 1460 1460 1460 1460 1460 1460 1460 1459 1459 1459 1459 1459 1459 1459 1459 1459 1459 1459 1459 1459 1459 1459 1459 1459 1459 1459 1459 1459 1459 1459 1459 1459 1459 1459 1459 1459 1459 1459 1459 1459 1459 1459 1459 1459 1459 1460 1460 1460 1460 1460 1460 1460 1460 1460 1460 1460 1460 1460 1460 1460 1460 1460 1461 1461 1461 1460 1460
1459 1459 1459 1459 1460 1460 1460 1460 1460 1460 1460 1460 1460 1460 1460 1460 1460 1460 1460 1460 1460 1460 1460 1460 1460 1460 1460 1460 1460 1459 1459 1459 1459 1459 1459 1459 1459 1459 1459 1459 1459 1459 1459 1459 1459 1459 1459 1459 1459 1459 1459 1459 1459 1459 1459 1459 1459 1459 1459 1459 1459 1459 1459 1459 1460 1460 1460 1460 1460 1460 1460 1460 1460 1460 1460 1460 1460 1460 1460 1460 1460 1461 1461 1461 1460 1460
1459 1459 1459 1460 1460 1460 1460 1460 1460 1460 1460 1460 1460 1460 1460 1460 1460 1460 1460 1460 1460 1460 1460 1460 1460 1460 1460 1460 1460 1460 1460 1460 1459 1459 1459 1459 1459 1459 1459 1459 1459 1459 1459 1459 1459 1459 1459 1459 1459 1459 1459 1459 1459 1459 1459 1459 1459 1459 1459 1459 1459 1459 1459 1459 1460 1460 1460 1460 1460 1460 1460 1460 1460 1460 1460 1460 1460 1460 1460 1460 1460 1461 1461 1461 1460 1460
1459 1459 1459 1460 1460 1460 1460 1460 1460 1460 1460 1460 1460 1460 1460 1460 1460 1460 1460 1460 1460 1460 1460 1460 1460 1460 1460 1460 1460 1460 1460 1460 1460 1460 1459 1459 1459 1459 1459 1459 1459 1458 1458 1458 1458 1458 1459 1459 1459 1459 1459 1459 1459 1459 1459 1459 1459 1459 1459 1459 1459 1459 1459 1459 1460 1460 1460 1460 1460 1460 1460 1460 1460 1460 1460 1460 1460 1460 1460 1460 1461 1461 1461 1461 1460 1460
1459 1460 1460 1460 1460 1460 1460 1460 1460 1460 1460 1460 1460 1460 1460 1460 1460 1460 1460 1460 1460 1460 1460 1460 1460 1460 1460 1460 1460 1460 1460 1460 1460 1460 1460 1460 1459 1459 1459 1459 1459 1459 1459 1458 1458 1458 1458 1459 1459 1459 1459 1459 1459 1459 1459 1459 1459 1459 1459 1459 1459 1459 1459 1459 1460 1460 1460 1460 1460 1460 1460 1460 1460 1460 1460 1460 1460 1460 1461 1461 1461 1461 1461 1461 1460 1460
1460 1460 1460 1460 1460 1460 1460 1460 1460 1460 1460 1460 1460 1460 1460 1460 1460 1460 1460 1460 1460 1460 1460 1460 1460 1460 1460 1460 1460 1460 1460 1460 1460 1460 1460 1460 1459 1459 1459 1459 1459 1459 1459 1459 1459 1458 1458 1458 1458 1459 1459 1459 1459 1459 1459 1459 1459 1459 1459 1459 1459 1459 1459 1459 1459 1460 1460 1460 1460 1460 1460 1460 1460 1460 1460 1460 1461 1461 1461 1461 1461 1461 1461 1461 1460 1460
1460 1460 1460 1460 1460 1460 1460 1460 1460 1460 1460 1460 1460 1460 1460 1460 1460 1460 1460 1460 1460 1460 1460 1460 1460 1460 1460 1460 1460 1460 1460 1460 1460 1460 1460 1460 1459 1459 1459 1459 1459 1459 1459 1459 1459 1459 1459 1459 1458 1458 1459 1459 1459 1459 1459 1459 1459 1459 1459 1459 1459 1459 1459 1459 1460 1460 1460 1460 1460 1460 1460 1460 1460 1460 1461 1461 1461 1461 1461 1461 1461 1461 1461 1461 1461 1460